Time,TemperatureF,DewpointF,PressureIn,WindDirection,WindDirectionDegrees,WindSpeedMPH,WindSpeedGustMPH,Humidity,HourlyPrecipIn,Conditions,Clouds,dailyrainin,SolarRadiationWatts/m^2,SoftwareType,DateUTC
2013-06-15 00:02:00,61.0,57.0,-100.00,SE,128,0.0,2.0,87,0.00,,,0.00,0.000000,,2013-06-15 05:02:00,
2013-06-15 00:10:00,62.0,55.0,-100.00,SSE,157,0.0,3.0,78,0.00,,,0.00,0.000000,,2013-06-15 05:10:00,
2013-06-15 00:34:00,62.0,55.0,-100.00,SSE,157,0.0,3.0,78,0.00,,,0.00,0.000000,,2013-06-15 05:34:00,
2013-06-15 00:43:00,62.0,55.0,-100.00,SSE,157,0.0,3.0,78,0.00,,,0.00,0.000000,,2013-06-15 05:43:00,
2013-06-15 00:52:00,62.0,55.0,-100.00,SSE,157,0.0,3.0,78,0.00,,,0.00,0.000000,,2013-06-15 05:52:00,
2013-06-15 01:02:00,62.0,55.0,-100.00,SSE,157,0.0,3.0,78,0.00,,,0.00,0.000000,,2013-06-15 06:02:00,
2013-06-15 01:10:00,62.0,53.0,-100.00,SSE,162,0.0,5.0,72,0.00,,,0.00,0.000000,,2013-06-15 06:10:00,
2013-06-15 01:33:00,62.0,53.0,-100.00,SSE,162,0.0,5.0,72,0.00,,,0.00,0.000000,,2013-06-15 06:33:00,
2013-06-15 01:43:00,62.0,53.0,-100.00,SSE,162,0.0,5.0,72,0.00,,,0.00,0.000000,,2013-06-15 06:43:00,
2013-06-15 01:53:00,62.0,53.0,-100.00,SSE,162,0.0,5.0,72,0.00,,,0.00,0.000000,,2013-06-15 06:53:00,
2013-06-15 02:01:00,62.0,53.0,-100.00,SSE,162,0.0,5.0,72,0.00,,,0.00,0.000000,,2013-06-15 07:01:00,
2013-06-15 02:10:00,62.0,52.0,-100.00,SE,145,1.0,5.0,71,0.00,,,0.00,0.000000,,2013-06-15 07:10:00,
2013-06-15 02:33:00,62.0,52.0,-100.00,SE,145,1.0,5.0,71,0.00,,,0.00,0.000000,,2013-06-15 07:33:00,
2013-06-15 02:43:00,62.0,52.0,-100.00,SE,145,1.0,5.0,71,0.00,,,0.00,0.000000,,2013-06-15 07:43:00,
2013-06-15 02:53:00,62.0,52.0,-100.00,SE,145,1.0,5.0,71,0.00,,,0.00,0.000000,,2013-06-15 07:53:00,
2013-06-15 03:02:00,62.0,52.0,-100.00,SE,145,1.0,5.0,71,0.00,,,0.00,0.000000,,2013-06-15 08:02:00,
2013-06-15 03:10:00,62.0,54.0,-100.00,SSW,204,2.0,8.0,74,0.00,,,0.00,0.000000,,2013-06-15 08:10:00,
2013-06-15 03:33:00,62.0,54.0,-100.00,SSW,204,2.0,8.0,74,0.00,,,0.00,0.000000,,2013-06-15 08:33:00,
2013-06-15 03:43:00,62.0,54.0,-100.00,SSW,204,2.0,8.0,74,0.00,,,0.00,0.000000,,2013-06-15 08:43:00,
2013-06-15 03:53:00,62.0,54.0,-100.00,SSW,204,2.0,8.0,74,0.00,,,0.00,0.000000,,2013-06-15 08:53:00,
2013-06-15 04:02:00,62.0,54.0,-100.00,SSW,204,2.0,8.0,74,0.00,,,0.00,0.000000,,2013-06-15 09:02:00,
2013-06-15 04:10:00,63.0,55.0,-100.00,SSW,201,3.0,11.0,75,0.00,,,0.00,0.000000,,2013-06-15 09:10:00,
2013-06-15 04:33:00,63.0,55.0,-100.00,SSW,201,3.0,11.0,75,0.00,,,0.00,0.000000,,2013-06-15 09:33:00,
2013-06-15 04:43:00,63.0,55.0,-100.00,SSW,201,3.0,11.0,75,0.00,,,0.00,0.000000,,2013-06-15 09:43:00,
2013-06-15 04:52:00,63.0,55.0,-100.00,SSW,201,3.0,11.0,75,0.00,,,0.00,0.000000,,2013-06-15 09:52:00,
2013-06-15 05:02:00,63.0,55.0,-100.00,SSW,201,3.0,11.0,75,0.00,,,0.00,0.000000,,2013-06-15 10:02:00,
2013-06-15 05:10:00,62.0,56.0,-100.00,South,187,1.0,11.0,81,0.00,,,0.00,0.000000,,2013-06-15 10:10:00,
2013-06-15 05:34:00,62.0,56.0,-100.00,South,187,1.0,11.0,81,0.00,,,0.00,0.000000,,2013-06-15 10:34:00,
2013-06-15 05:44:00,62.0,56.0,-100.00,South,187,1.0,11.0,81,0.00,,,0.00,0.000000,,2013-06-15 10:44:00,
2013-06-15 05:53:00,62.0,56.0,-100.00,South,187,1.0,11.0,81,0.00,,,0.00,0.000000,,2013-06-15 10:53:00,
2013-06-15 06:02:00,62.0,56.0,-100.00,South,187,1.0,11.0,81,0.00,,,0.00,0.000000,,2013-06-15 11:02:00,
2013-06-15 06:10:00,61.0,57.0,-100.00,ESE,118,0.0,4.0,86,0.00,,,0.00,6.000000,,2013-06-15 11:10:00,
2013-06-15 06:33:00,61.0,57.0,-100.00,ESE,118,0.0,4.0,86,0.00,,,0.00,6.000000,,2013-06-15 11:33:00,
2013-06-15 06:43:00,61.0,57.0,-100.00,ESE,118,0.0,4.0,86,0.00,,,0.00,6.000000,,2013-06-15 11:43:00,
2013-06-15 06:53:00,61.0,57.0,-100.00,ESE,118,0.0,4.0,86,0.00,,,0.00,6.000000,,2013-06-15 11:53:00,
2013-06-15 07:01:00,61.0,57.0,-100.00,ESE,118,0.0,4.0,86,0.00,,,0.00,6.000000,,2013-06-15 12:01:00,
2013-06-15 07:10:00,62.0,57.0,-100.00,ESE,123,0.0,3.0,84,0.00,,,0.00,19.000000,,2013-06-15 12:10:00,
2013-06-15 07:33:00,62.0,57.0,-100.00,ESE,123,0.0,3.0,84,0.00,,,0.00,19.000000,,2013-06-15 12:33:00,
2013-06-15 07:43:00,62.0,57.0,-100.00,ESE,123,0.0,3.0,84,0.00,,,0.00,19.000000,,2013-06-15 12:43:00,
2013-06-15 07:52:00,62.0,57.0,-100.00,ESE,123,0.0,3.0,84,0.00,,,0.00,19.000000,,2013-06-15 12:52:00,
2013-06-15 08:02:00,62.0,57.0,-100.00,ESE,123,0.0,3.0,84,0.00,,,0.00,19.000000,,2013-06-15 13:02:00,
2013-06-15 08:10:00,63.0,58.0,-100.00,SE,136,1.0,4.0,83,0.00,,,0.00,35.000000,,2013-06-15 13:10:00,
2013-06-15 08:33:00,63.0,58.0,-100.00,SE,136,1.0,4.0,83,0.00,,,0.00,35.000000,,2013-06-15 13:33:00,
2013-06-15 08:44:00,63.0,58.0,-100.00,SE,136,1.0,4.0,83,0.00,,,0.00,35.000000,,2013-06-15 13:44:00,
2013-06-15 08:53:00,63.0,58.0,-100.00,SE,136,1.0,4.0,83,0.00,,,0.00,35.000000,,2013-06-15 13:53:00,
2013-06-15 09:01:00,63.0,58.0,-100.00,SE,136,1.0,4.0,83,0.00,,,0.00,35.000000,,2013-06-15 14:01:00,
2013-06-15 09:10:00,60.0,59.0,-100.00,SE,140,1.0,4.0,96,0.04,,,0.04,23.000000,,2013-06-15 14:10:00,
2013-06-15 09:34:00,60.0,59.0,-100.00,SE,140,1.0,4.0,96,0.04,,,0.04,23.000000,,2013-06-15 14:34:00,
2013-06-15 09:43:00,60.0,59.0,-100.00,SE,140,1.0,4.0,96,0.04,,,0.04,23.000000,,2013-06-15 14:43:00,
2013-06-15 09:54:00,60.0,59.0,-100.00,SE,140,1.0,4.0,96,0.04,,,0.04,23.000000,,2013-06-15 14:54:00,
2013-06-15 10:02:00,60.0,59.0,-100.00,SE,140,1.0,4.0,96,0.04,,,0.04,23.000000,,2013-06-15 15:02:00,
2013-06-15 10:10:00,61.0,60.0,-100.00,SSW,203,1.0,5.0,97,0.06,,,0.10,58.000000,,2013-06-15 15:10:00,
2013-06-15 10:33:00,61.0,60.0,-100.00,SSW,203,1.0,5.0,97,0.06,,,0.10,58.000000,,2013-06-15 15:33:00,
2013-06-15 10:43:00,61.0,60.0,-100.00,SSW,203,1.0,5.0,97,0.06,,,0.10,58.000000,,2013-06-15 15:43:00,
2013-06-15 10:53:00,61.0,60.0,-100.00,SSW,203,1.0,5.0,97,0.06,,,0.10,58.000000,,2013-06-15 15:53:00,
2013-06-15 11:01:00,61.0,60.0,-100.00,SSW,203,1.0,5.0,97,0.06,,,0.10,58.000000,,2013-06-15 16:01:00,
2013-06-15 11:10:00,62.0,60.0,-100.00,South,186,3.0,9.0,94,0.01,,,0.11,191.000000,,2013-06-15 16:10:00,
2013-06-15 11:33:00,62.0,60.0,-100.00,South,186,3.0,9.0,94,0.01,,,0.11,191.000000,,2013-06-15 16:33:00,
2013-06-15 11:43:00,62.0,60.0,-100.00,South,186,3.0,9.0,94,0.01,,,0.11,191.000000,,2013-06-15 16:43:00,
2013-06-15 11:53:00,62.0,60.0,-100.00,South,186,3.0,9.0,94,0.01,,,0.11,191.000000,,2013-06-15 16:53:00,
2013-06-15 12:02:00,62.0,60.0,-100.00,South,186,3.0,9.0,94,0.01,,,0.11,191.000000,,2013-06-15 17:02:00,
2013-06-15 12:10:00,62.0,60.0,-100.00,SSW,205,3.0,9.0,94,0.00,,,0.11,104.000000,,2013-06-15 17:10:00,
2013-06-15 12:32:00,62.0,60.0,-100.00,SSW,205,3.0,9.0,94,0.00,,,0.11,104.000000,,2013-06-15 17:32:00,
2013-06-15 12:43:00,62.0,60.0,-100.00,SSW,205,3.0,9.0,94,0.00,,,0.11,104.000000,,2013-06-15 17:43:00,
2013-06-15 12:52:00,62.0,60.0,-100.00,SSW,205,3.0,9.0,94,0.00,,,0.11,104.000000,,2013-06-15 17:52:00,
2013-06-15 13:01:00,62.0,60.0,-100.00,SSW,205,3.0,9.0,94,0.00,,,0.11,104.000000,,2013-06-15 18:01:00,
2013-06-15 13:10:00,63.0,61.0,-100.00,South,191,2.0,8.0,94,0.00,,,0.11,151.000000,,2013-06-15 18:10:00,
2013-06-15 13:33:00,63.0,61.0,-100.00,South,191,2.0,8.0,94,0.00,,,0.11,151.000000,,2013-06-15 18:33:00,
2013-06-15 13:43:00,63.0,61.0,-100.00,South,191,2.0,8.0,94,0.00,,,0.11,151.000000,,2013-06-15 18:43:00,
2013-06-15 13:53:00,63.0,61.0,-100.00,South,191,2.0,8.0,94,0.00,,,0.11,151.000000,,2013-06-15 18:53:00,
2013-06-15 14:01:00,63.0,61.0,-100.00,South,191,2.0,8.0,94,0.00,,,0.11,151.000000,,2013-06-15 19:01:00,
2013-06-15 14:10:00,65.0,63.0,-100.00,WSW,241,3.0,8.0,93,0.00,,,0.11,169.000000,,2013-06-15 19:10:00,
2013-06-15 14:33:00,65.0,63.0,-100.00,WSW,241,3.0,8.0,93,0.00,,,0.11,169.000000,,2013-06-15 19:33:00,
2013-06-15 14:43:00,65.0,63.0,-100.00,WSW,241,3.0,8.0,93,0.00,,,0.11,169.000000,,2013-06-15 19:43:00,
2013-06-15 14:53:00,65.0,63.0,-100.00,WSW,241,3.0,8.0,93,0.00,,,0.11,169.000000,,2013-06-15 19:53:00,
2013-06-15 15:02:00,65.0,63.0,-100.00,WSW,241,3.0,8.0,93,0.00,,,0.11,169.000000,,2013-06-15 20:02:00,
2013-06-15 15:10:00,66.0,63.0,-100.00,SW,227,3.0,8.0,91,0.00,,,0.11,156.000000,,2013-06-15 20:10:00,
2013-06-15 15:33:00,66.0,63.0,-100.00,SW,227,3.0,8.0,91,0.00,,,0.11,156.000000,,2013-06-15 20:33:00,
2013-06-15 15:43:00,66.0,63.0,-100.00,SW,227,3.0,8.0,91,0.00,,,0.11,156.000000,,2013-06-15 20:43:00,
2013-06-15 15:53:00,66.0,63.0,-100.00,SW,227,3.0,8.0,91,0.00,,,0.11,156.000000,,2013-06-15 20:53:00,
2013-06-15 16:01:00,66.0,63.0,-100.00,SW,227,3.0,8.0,91,0.00,,,0.11,156.000000,,2013-06-15 21:01:00,
2013-06-15 16:10:00,66.0,64.0,-100.00,West,273,1.0,7.0,92,0.00,,,0.11,74.000000,,2013-06-15 21:10:00,
2013-06-15 16:34:00,66.0,64.0,-100.00,West,273,1.0,7.0,92,0.00,,,0.11,74.000000,,2013-06-15 21:34:00,
2013-06-15 16:42:00,66.0,64.0,-100.00,West,273,1.0,7.0,92,0.00,,,0.11,74.000000,,2013-06-15 21:42:00,
2013-06-15 16:53:00,66.0,64.0,-100.00,West,273,1.0,7.0,92,0.00,,,0.11,74.000000,,2013-06-15 21:53:00,
2013-06-15 17:01:00,66.0,64.0,-100.00,West,273,1.0,7.0,92,0.00,,,0.11,74.000000,,2013-06-15 22:01:00,
2013-06-15 17:10:00,66.0,65.0,-100.00,NW,319,0.0,6.0,97,0.00,,,0.11,33.000000,,2013-06-15 22:10:00,
2013-06-15 17:33:00,66.0,65.0,-100.00,NW,319,0.0,6.0,97,0.00,,,0.11,33.000000,,2013-06-15 22:33:00,
2013-06-15 17:43:00,66.0,65.0,-100.00,NW,319,0.0,6.0,97,0.00,,,0.11,33.000000,,2013-06-15 22:43:00,
2013-06-15 17:53:00,66.0,65.0,-100.00,NW,319,0.0,6.0,97,0.00,,,0.11,33.000000,,2013-06-15 22:53:00,
2013-06-15 18:02:00,66.0,65.0,-100.00,NW,319,0.0,6.0,97,0.00,,,0.11,33.000000,,2013-06-15 23:02:00,
2013-06-15 18:10:00,65.0,64.0,-100.00,NW,326,1.0,4.0,98,0.01,,,0.12,13.000000,,2013-06-15 23:10:00,
2013-06-15 18:33:00,65.0,64.0,-100.00,NW,326,1.0,4.0,98,0.01,,,0.12,13.000000,,2013-06-15 23:33:00,
2013-06-15 18:43:00,65.0,64.0,-100.00,NW,326,1.0,4.0,98,0.01,,,0.12,13.000000,,2013-06-15 23:43:00,
2013-06-15 18:53:00,65.0,64.0,-100.00,NW,326,1.0,4.0,98,0.01,,,0.12,13.000000,,2013-06-15 23:53:00,
2013-06-15 19:01:00,65.0,64.0,-100.00,NW,326,1.0,4.0,98,0.01,,,0.12,13.000000,,2013-06-16 00:01:00,
2013-06-15 19:10:00,65.0,64.0,-100.00,NW,326,5.0,12.0,98,0.39,,,-99.99,1.000000,,2013-06-16 00:10:00,
2013-06-15 19:43:00,65.0,64.0,-100.00,NW,326,5.0,12.0,98,0.39,,,-99.99,1.000000,,2013-06-16 00:43:00,
2013-06-15 19:52:00,65.0,64.0,-100.00,NW,326,5.0,12.0,98,0.39,,,-99.99,1.000000,,2013-06-16 00:52:00,
2013-06-15 20:01:00,65.0,64.0,-100.00,NW,326,5.0,12.0,98,0.39,,,-99.99,1.000000,,2013-06-16 01:01:00,
2013-06-15 20:10:00,60.0,59.0,-100.00,ENE,70,1.0,16.0,97,0.13,,,0.64,11.000000,,2013-06-16 01:10:00,
2013-06-15 20:33:00,60.0,59.0,-100.00,ENE,70,1.0,16.0,97,0.13,,,0.64,11.000000,,2013-06-16 01:33:00,
2013-06-15 20:43:00,60.0,59.0,-100.00,ENE,70,1.0,16.0,97,0.13,,,0.64,11.000000,,2013-06-16 01:43:00,
2013-06-15 20:53:00,60.0,59.0,-100.00,ENE,70,1.0,16.0,97,0.13,,,0.64,11.000000,,2013-06-16 01:53:00,
2013-06-15 21:02:00,60.0,59.0,-100.00,ENE,70,1.0,16.0,97,0.13,,,0.64,11.000000,,2013-06-16 02:02:00,
2013-06-15 21:10:00,60.0,59.0,-100.00,South,184,0.0,3.0,98,0.00,,,0.64,17.000000,,2013-06-16 02:10:00,
2013-06-15 21:33:00,60.0,59.0,-100.00,South,184,0.0,3.0,98,0.00,,,0.64,17.000000,,2013-06-16 02:33:00,
2013-06-15 21:43:00,60.0,59.0,-100.00,South,184,0.0,3.0,98,0.00,,,0.64,17.000000,,2013-06-16 02:43:00,
2013-06-15 21:53:00,60.0,59.0,-100.00,South,184,0.0,3.0,98,0.00,,,0.64,17.000000,,2013-06-16 02:53:00,
2013-06-15 22:02:00,60.0,59.0,-100.00,South,184,0.0,3.0,98,0.00,,,0.64,17.000000,,2013-06-16 03:02:00,
2013-06-15 22:10:00,57.0,57.0,-100.00,SW,234,0.0,2.0,99,0.00,,,0.64,0.000000,,2013-06-16 03:10:00,
2013-06-15 22:34:00,57.0,57.0,-100.00,SW,234,0.0,2.0,99,0.00,,,0.64,0.000000,,2013-06-16 03:34:00,
2013-06-15 22:43:00,57.0,57.0,-100.00,SW,234,0.0,2.0,99,0.00,,,0.64,0.000000,,2013-06-16 03:43:00,
2013-06-15 22:53:00,57.0,57.0,-100.00,SW,234,0.0,2.0,99,0.00,,,0.64,0.000000,,2013-06-16 03:53:00,
2013-06-15 23:02:00,57.0,57.0,-100.00,SW,234,0.0,2.0,99,0.00,,,0.64,0.000000,,2013-06-16 04:02:00,
2013-06-15 23:10:00,55.0,55.0,-100.00,NW,314,0.0,2.0,99,0.00,,,0.64,0.000000,,2013-06-16 04:10:00,
2013-06-15 23:34:00,55.0,55.0,-100.00,NW,314,0.0,2.0,99,0.00,,,0.64,0.000000,,2013-06-16 04:34:00,
2013-06-15 23:43:00,55.0,55.0,-100.00,NW,314,0.0,2.0,99,0.00,,,0.64,0.000000,,2013-06-16 04:43:00,
2013-06-15 23:53:00,55.0,55.0,-100.00,NW,314,0.0,2.0,99,0.00,,,0.64,0.000000,,2013-06-16 04:53:00,